Location: Ash Observatory
(39.7321°N, 75.2004°W)
Time: 13:04:30
(UTC-04:00)

ISS - Pass Details

Date: 25 March 2019
Orbit: 408 x 410 km, 51.6° (Epoch: 20 April)

Event Time Altitude Azimuth Distance (km) Brightness Sun altitude
Rises 21:25:44 0° 290° (WNW) 2,335 1.4 -24.5°
Reaches altitude 10° 21:28:48 10° 321° (NW) 1,475 -0.1 -25.1°
Maximum altitude 21:30:19 13° 348° (NNW) 1,330 -0.8 -25.3°
Enters shadow 21:30:49 12° 358° (N) 1,346 -0.9 -25.4°
